Weather History for Paris, IL

Change the Weather History Date:

Thursday, October 25, 2012

  Actual Average (KHUF) Record (KHUF)
Temperature  
Mean Temperature 61 °F 51 °F  
Max Temperature 77 °F 62 °F 83 °F (1963)
Min Temperature 44 °F 40 °F 25 °F (2013)
Degree Days  
Heating Degree Days 4 14  
Month to date heating degree days 260  
Since 1 July heating degree days 338  
Cooling Degree Days 0 0  
Month to date cooling degree days 12  
Year to date cooling degree days 990  
Growing Degree Days 11 (Base 50)    
Moisture  
Dew Point 57 °F    
Average Humidity 75    
Maximum Humidity 94    
Minimum Humidity 57    
Precipitation  
Precipitation 0.03 in 0.12 in 0.75 in (2002)
Month to date precipitation 2.93  
Year to date precipitation 37.63  
Sea Level Pressure  
Sea Level Pressure 29.92 in    
Wind  
Wind Speed 14 mph (South)    
Max Wind Speed 26 mph    
Max Gust Speed 34 mph    
Visibility 8 miles    
Events Rain    
T = Trace of Precipitation, MM = Missing Value Source: NWS Daily Summary

Daily Weather History Graph

Daily Weather History Graph

Search for Another Location

Airport:

Trip Planner

Search our weather history database for the weather conditions in past years. The results will help you decide how hot, cold, wet, or windy it might be!

Date:

Astronomy

Oct. 25, 2012 Rise Set
Actual Time 7:12 AM CDT 5:56 PM CDT
Civil Twilight 6:44 AM CDT 6:24 PM CDT
Nautical Twilight 6:12 AM CDT 6:55 PM CDT
Astronomical Twilight 5:41 AM CDT 7:27 PM CDT
Moon 3:42 PM CDT (10/25) 3:08 AM CDT (10/25)
Length of Visible Light 11h 39m
Length of Day
10h 44m
Waxing Gibbous, 84% of the Moon is Illuminated
Oct 25
Waxing Gibbous
Oct 29
Full
Nov 6
Last Quarter
Nov 13
New
Nov 20
First Quarter

Hourly Weather History & Observations

Time (CDT) Temp. Windchill Dew Point Humidity Pressure Visibility Wind Dir Wind Speed Gust Speed Precip Events Conditions
12:15 AM 64.4 °F - 57.2 °F 77% 29.95 in 10.0 mi SSE 9.2 mph - N/A   Clear
12:35 AM 63.5 °F - 57.6 °F 81% 29.95 in 7.0 mi SSE 10.4 mph - N/A   Clear
12:55 AM 63.3 °F - 57.4 °F 81% 29.95 in 7.0 mi SSE 9.2 mph - 0.01 in   Clear
1:15 AM 63.0 °F - 57.2 °F 81% 29.95 in 7.0 mi SSE 10.4 mph - N/A   Clear
1:35 AM 62.8 °F - 57.2 °F 82% 29.95 in 7.0 mi SSE 9.2 mph - N/A   Clear
1:55 AM 61.0 °F - 56.5 °F 85% 29.94 in 7.0 mi SSE 8.1 mph - N/A   Clear
2:15 AM 62.6 °F - 57.2 °F 82% 29.94 in 7.0 mi SSE 9.2 mph - N/A   Clear
2:35 AM 61.3 °F - 56.3 °F 83% 29.94 in 10.0 mi SSE 8.1 mph - N/A   Clear
2:55 AM 61.9 °F - 56.3 °F 82% 29.94 in 10.0 mi SSE 10.4 mph - N/A   Clear
3:15 AM 62.1 °F - 56.3 °F 81% 29.93 in 7.0 mi SSE 11.5 mph - N/A   Clear
3:35 AM 61.7 °F - 56.3 °F 82% 29.93 in 10.0 mi SSE 11.5 mph - N/A   Clear
3:55 AM 61.7 °F - 56.3 °F 82% 29.93 in 10.0 mi SSE 11.5 mph - N/A   Clear
4:15 AM 61.0 °F - 55.9 °F 83% 29.92 in 7.0 mi South 10.4 mph - N/A   Clear
4:35 AM 60.4 °F - 55.8 °F 85% 29.92 in 7.0 mi South 10.4 mph - N/A   Clear
4:55 AM 59.4 °F - 55.4 °F 87% 29.93 in 7.0 mi South 8.1 mph - N/A   Clear
5:15 AM 59.2 °F - 55.6 °F 88% 29.93 in 7.0 mi SSE 9.2 mph - N/A   Clear
5:35 AM 59.5 °F - 55.6 °F 87% 29.93 in 7.0 mi SSE 9.2 mph - N/A   Clear
5:55 AM 59.2 °F - 55.4 °F 87% 29.93 in 7.0 mi SSE 8.1 mph - N/A   Clear
6:15 AM 59.2 °F - 55.4 °F 87% 29.94 in 7.0 mi SSE 10.4 mph - N/A   Clear
6:35 AM 59.0 °F - 55.4 °F 88% 29.94 in 7.0 mi SSE 9.2 mph - N/A   Clear
6:55 AM 58.5 °F - 55.4 °F 90% 29.96 in 7.0 mi South 8.1 mph - N/A   Clear
7:15 AM 58.5 °F - 55.6 °F 90% 29.96 in 7.0 mi SSE 9.2 mph - N/A   Clear
7:35 AM 59.0 °F - 55.8 °F 89% 29.96 in 7.0 mi SSE 9.2 mph - N/A   Clear
7:55 AM 60.3 °F - 56.5 °F 87% 29.96 in 7.0 mi SSE 9.2 mph - N/A   Clear
8:35 AM 63.5 °F - 57.9 °F 82% 29.96 in 7.0 mi South 13.8 mph - 0.01 in   Clear
8:55 AM 64.8 °F - 58.3 °F 79% 29.96 in 7.0 mi South 15.0 mph - 0.01 in   Mostly Cloudy
9:15 AM 65.7 °F - 58.6 °F 78% 29.95 in 7.0 mi South 15.0 mph - N/A   Overcast
9:35 AM 68.9 °F - 59.7 °F 72% 29.95 in 7.0 mi South 15.0 mph 19.6 mph N/A   Overcast
9:55 AM 69.8 °F - 59.4 °F 69% 29.94 in 7.0 mi South 18.4 mph 25.3 mph N/A   Mostly Cloudy
10:15 AM 70.9 °F - 59.5 °F 67% 29.94 in 7.0 mi South 18.4 mph 26.5 mph N/A   Clear
10:35 AM 70.9 °F - 59.4 °F 67% 29.93 in 7.0 mi South 21.9 mph 31.1 mph N/A   Clear
10:55 AM 72.7 °F - 59.9 °F 64% 29.92 in 7.0 mi South 20.7 mph 25.3 mph N/A   Clear
11:15 AM 73.4 °F - 59.7 °F 62% 29.92 in 7.0 mi South 20.7 mph 28.8 mph N/A   Clear
11:35 AM 73.9 °F - 60.3 °F 62% 29.92 in 7.0 mi South 23.0 mph 32.2 mph N/A   Clear
11:55 AM 74.8 °F - 60.3 °F 60% 29.91 in 7.0 mi South 19.6 mph 27.6 mph N/A   Clear
12:15 PM 75.4 °F - 60.8 °F 60% 29.90 in 7.0 mi South 18.4 mph 31.1 mph N/A   Clear
12:35 PM 76.1 °F - 61.0 °F 59% 29.89 in 7.0 mi South 24.2 mph 31.1 mph N/A   Clear
12:55 PM 76.6 °F - 61.3 °F 59% 29.88 in 7.0 mi South 19.6 mph 29.9 mph N/A   Clear
1:15 PM 77.0 °F - 60.8 °F 57% 29.88 in 7.0 mi South 24.2 mph 28.8 mph N/A   Clear
1:35 PM 77.0 °F - 61.2 °F 58% 29.87 in 7.0 mi South 26.5 mph 31.1 mph N/A   Clear
1:55 PM 77.4 °F - 61.5 °F 58% 29.86 in 7.0 mi South 24.2 mph 32.2 mph N/A   Clear
2:15 PM 77.5 °F - 61.0 °F 57% 29.85 in 7.0 mi South 24.2 mph - N/A   Clear
2:35 PM 77.5 °F - 61.0 °F 57% 29.85 in 7.0 mi South 25.3 mph 33.4 mph N/A   Clear
2:55 PM 77.0 °F - 60.8 °F 57% 29.84 in 7.0 mi South 21.9 mph 34.5 mph N/A   Clear
3:15 PM 77.5 °F - 61.2 °F 57% 29.84 in 7.0 mi South 21.9 mph 27.6 mph N/A   Scattered Clouds
3:35 PM 77.4 °F - 61.0 °F 57% 29.84 in 7.0 mi South 23.0 mph 29.9 mph N/A   Scattered Clouds
3:55 PM 76.5 °F - 61.0 °F 59% 29.85 in 7.0 mi South 23.0 mph 28.8 mph N/A   Mostly Cloudy
4:15 PM 77.2 °F - 61.3 °F 58% 29.84 in 7.0 mi South 24.2 mph 29.9 mph N/A   Mostly Cloudy
4:35 PM 76.1 °F - 60.8 °F 59% 29.84 in 7.0 mi South 21.9 mph 27.6 mph 0.01 in   Scattered Clouds
4:55 PM 75.4 °F - 60.8 °F 60% 29.84 in 7.0 mi South 23.0 mph 29.9 mph 0.01 in   Clear
5:15 PM 74.3 °F - 60.8 °F 63% 29.84 in 7.0 mi South 20.7 mph 25.3 mph N/A   Clear
5:35 PM 73.4 °F - 60.8 °F 65% 29.85 in 7.0 mi South 15.0 mph - N/A   Clear
5:55 PM 72.0 °F - 60.8 °F 68% 29.85 in 7.0 mi South 15.0 mph - N/A   Clear
6:15 PM 71.6 °F - 60.8 °F 69% 29.85 in 7.0 mi South 17.3 mph 20.7 mph N/A   Scattered Clouds
6:35 PM 70.7 °F - 60.8 °F 71% 29.85 in 7.0 mi South 16.1 mph - N/A   Clear
6:55 PM 70.3 °F - 60.8 °F 72% 29.85 in 7.0 mi South 16.1 mph - N/A   Clear
7:15 PM 70.7 °F - 60.6 °F 70% 29.86 in 7.0 mi South 16.1 mph 21.9 mph N/A   Clear
7:35 PM 70.3 °F - 60.4 °F 71% 29.86 in 7.0 mi South 17.3 mph - N/A   Scattered Clouds
7:55 PM 66.6 °F - 56.5 °F 70% 29.90 in 10.0 mi West 17.3 mph 28.8 mph N/A   Mostly Cloudy
8:15 PM 57.9 °F - 52.9 °F 83% 29.92 in 10.0 mi WNW 18.4 mph 31.1 mph N/A   Overcast
8:35 PM 55.8 °F - 52.5 °F 89% 29.96 in 10.0 mi WNW 16.1 mph 23.0 mph N/A   Overcast
8:55 PM 54.0 °F - 49.3 °F 84% 29.97 in 10.0 mi WNW 19.6 mph 27.6 mph N/A   Overcast
9:15 PM 52.7 °F - 47.7 °F 83% 29.98 in 10.0 mi WNW 23.0 mph 28.8 mph N/A   Overcast
9:35 PM 51.6 °F - 47.3 °F 85% 29.99 in 10.0 mi WNW 16.1 mph 26.5 mph N/A   Overcast
9:55 PM 51.1 °F - 47.3 °F 87% 30.01 in 10.0 mi WNW 17.3 mph 26.5 mph N/A Rain Rain
10:15 PM 50.0 °F - 46.4 °F 87% 30.01 in 10.0 mi NW 12.7 mph - N/A   Overcast
10:35 PM 49.3 °F - 46.4 °F 90% 30.03 in 10.0 mi NW 12.7 mph 23.0 mph N/A Rain Light Rain
10:55 PM 48.4 °F - 45.9 °F 91% 30.05 in 10.0 mi NW 15.0 mph 18.4 mph N/A Rain Rain
11:15 PM 46.0 °F 39.0 °F 43.9 °F 92% 30.07 in 7.0 mi NW 17.3 mph - N/A Rain Heavy Rain
11:35 PM 45.0 °F 38.2 °F 43.3 °F 94% 30.07 in 10.0 mi NNW 15.0 mph 24.2 mph N/A Rain Rain
11:55 PM 44.8 °F 37.4 °F 43.2 °F 94% 30.07 in 10.0 mi NW 17.3 mph 23.0 mph N/A Rain Light Rain